Location: Aalen
(48.8330°N, 10.1000°E)
Time: 20:34:19
(UTC+02:00)

S-56A Canister/Altair - Pass Details

Date: 10 August 2021
Orbit: 632 x 2500 km, 38.9° (Epoch: 19 September)

Event Time Altitude Azimuth Distance (km) Brightness Sun altitude
Rises 16:17:38 0° 262° (W) 5,123 12.5 41.5°
Reaches altitude 10° 16:20:44 10° 258° (WSW) 4,346 12.5 41.0°
Maximum altitude 16:32:45 55° 186° (S) 2,714 11.2 39.3°
Drops below altitude 10° 16:47:13 10° 115° (ESE) 5,151 11.5 37.1°
Sets 16:51:16 0° 112° (ESE) 6,103 11.8 36.4°
